This is the latest recevied weather packets stored in our database for station/object HB9KBJ-4. If no packets are shown the sender has not sent any weather packets the latest 10 day(s).
| Time | Temp. | Humidity | Pressure | Rain* | Wind** | Luminosity | Snow |
|---|---|---|---|---|---|---|---|
| 1787743472 | 23.33° C | 53% | - | 0 mm | - | - | - |
| 1787743172 | 23.33° C | 53% | - | 0 mm | - | - | - |
| 1787742872 | 23.33° C | 52% | - | 0 mm | - | - | - |
| 1787742571 | 22.78° C | 54% | - | 0 mm | - | - | - |
| 1787742271 | 22.78° C | 56% | - | 0 mm | - | - | - |
| 1787741971 | 22.22° C | 54% | - | 0 mm | - | - | - |
| 1787741070 | 21.11° C | 61% | - | 0 mm | - | - | - |
| 1787740169 | 20° C | 60% | - | 0 mm | - | - | - |
| 1787739869 | 20° C | 62% | - | 0 mm | - | - | - |
| 1787739269 | 19.44° C | 65% | - | 0 mm | - | - | - |
| 1787739268 | 19.44° C | 65% | - | 0 mm | - | - | - |
| 1787738367 | 18.89° C | 68% | - | 0 mm | - | - | - |
| 1787738067 | 18.33° C | 69% | - | 0 mm | - | - | - |
| 1787737466 | 18.33° C | 68% | - | 0 mm | - | - | - |
| 1787736867 | 17.78° C | 67% | - | 0 mm | - | - | - |
| 1787736566 | 17.22° C | 68% | - | 0 mm | - | - | - |
| 1787735965 | 16.67° C | 70% | - | 0 mm | - | - | - |
| 1787735665 | 16.67° C | 71% | - | 0 mm | - | - | - |
| 1787734163 | 16.11° C | 74% | - | 0 mm | - | - | - |
| 1787733863 | 16.11° C | 77% | - | 0 mm | - | - | - |
| 1787733263 | 15.56° C | 78% | - | 0 mm | - | - | - |
| 1787732962 | 15.56° C | 78% | - | 0 mm | - | - | - |
* Rain since midnight (hover to see other rain measurements)
** Current wind speed in m/s (hover to see current wind gust speed)